| time (UTC) | temp F | wind direction | speed MPH | gust MPH | rain 1hr in | rain 24hr in | rain mn in | humidity % | barometer mb |
| 20260509144549 | 67 | 113 | 1.0 | 9.0 | 0.00 | 1.22 | 0.00 | 96 | 1013.0 |
| 20260509143050 | 67 | 62 | 3.0 | 14.0 | 0.00 | 1.22 | 0.00 | 96 | 1012.8 |
| 20260509141555 | 68 | 72 | 7.0 | 12.0 | 0.00 | 1.22 | 0.00 | 96 | 1012.6 |
| 20260509140057 | 68 | 76 | 1.0 | 9.0 | 0.00 | 1.22 | 0.00 | 96 | 1012.8 |
| 20260509134545 | 68 | 46 | 1.0 | 5.0 | 0.00 | 1.22 | 0.00 | 96 | 1012.6 |
| 20260509133048 | 68 | 49 | 2.0 | 8.0 | 0.00 | 1.22 | 0.00 | 96 | 1012.4 |
| 20260509131548 | 69 | 0 | 2.0 | 9.0 | 0.00 | 1.22 | 0.00 | 96 | 1012.4 |
| 20260509130051 | 71 | 0 | 2.0 | 8.0 | 0.00 | 1.22 | 0.00 | 96 | 1012.4 |
| 20260509124558 | 72 | 49 | 1.0 | 5.0 | 0.00 | 1.22 | 0.00 | 96 | 1012.6 |
| 20260509123054 | 72 | 0 | 0.0 | 3.0 | 0.00 | 1.22 | 0.00 | 96 | 1012.1 |
| 20260509121551 | 72 | 0 | 0.0 | 1.0 | 0.00 | 1.22 | 0.00 | 97 | 1011.9 |
| 20260509120048 | 72 | 5 | 0.0 | 0.0 | 0.00 | 1.22 | 0.00 | 97 | 1011.9 |
| 20260509114550 | 72 | 0 | 0.0 | 0.0 | 0.00 | 1.22 | 0.00 | 96 | 1011.9 |
| 20260509113106 | 72 | 0 | 0.0 | 0.0 | 0.00 | 1.22 | 0.00 | 96 | 1011.8 |
| 20260509111549 | 72 | 0 | 0.0 | 0.0 | 0.00 | 1.22 | 0.00 | 96 | 1011.5 |
| 20260509110048 | 72 | 0 | 0.0 | 0.0 | 0.00 | 1.22 | 0.00 | 97 | 1011.3 |
| 20260509104556 | 72 | 0 | 0.0 | 0.0 | 0.00 | 1.22 | 0.00 | 96 | 1010.9 |
| 20260509103055 | 72 | 0 | 0.0 | 0.0 | 0.00 | 1.22 | 0.00 | 96 | 1011.1 |
| 20260509101549 | 72 | 0 | 0.0 | 0.0 | 0.00 | 1.22 | 0.00 | 96 | 1010.8 |
| 20260509100109 | 71 | 0 | 0.0 | 0.0 | 0.00 | 1.22 | 0.00 | 96 | 1010.7 |
| 20260509094554 | 71 | 0 | 0.0 | 0.0 | 0.00 | 1.22 | 0.00 | 96 | 1010.5 |
| 20260509093052 | 71 | 0 | 0.0 | 1.0 | 0.00 | 1.22 | 0.00 | 96 | 1010.6 |
| 20260509091602 | 71 | 0 | 0.0 | 2.0 | 0.00 | 1.22 | 0.00 | 96 | 1010.6 |
| 20260509090044 | 71 | 0 | 0.0 | 2.0 | 0.00 | 1.22 | 0.00 | 96 | 1010.6 |
| 20260509084547 | 71 | 130 | 0.0 | 1.0 | 0.00 | 1.22 | 0.00 | 96 | 1010.7 |
| 20260509083046 | 71 | 0 | 0.0 | 1.0 | 0.00 | 1.22 | 0.00 | 96 | 1010.6 |
| 20260509081556 | 70 | 0 | 0.0 | 1.0 | 0.00 | 1.22 | 0.00 | 96 | 1010.7 |
| 20260509080051 | 70 | 0 | 0.0 | 0.0 | 0.00 | 1.22 | 0.00 | 96 | 1010.9 |
| 20260509074549 | 70 | 0 | 0.0 | 1.0 | 0.00 | 1.22 | 0.00 | 96 | 1011.1 |
| 20260509073049 | 70 | 0 | 0.0 | 1.0 | 0.00 | 1.22 | 0.00 | 96 | 1011.4 |
| 20260509071548 | 70 | 0 | 0.0 | 0.0 | 0.00 | 1.22 | 0.00 | 96 | 1011.5 |
| 20260509070051 | 70 | 0 | 0.0 | 4.0 | 0.00 | 1.22 | 0.00 | 96 | 1011.8 |
| 20260509064550 | 70 | 161 | 0.0 | 2.0 | 0.00 | 1.22 | 0.00 | 96 | 1012.0 |
| 20260509063056 | 69 | 0 | 0.0 | 1.0 | 0.00 | 1.22 | 0.00 | 96 | 1012.2 |
| 20260509061605 | 69 | 0 | 0.0 | 0.0 | 0.00 | 1.22 | 0.00 | 96 | 1012.0 |
| 20260509060047 | 69 | 0 | 0.0 | 1.0 | 0.00 | 1.22 | 0.00 | 96 | 1012.3 |
| 20260509054557 | 69 | 0 | 0.0 | 2.0 | 0.00 | 1.22 | 0.00 | 96 | 1012.7 |
| 20260509053058 | 70 | 148 | 0.0 | 4.0 | 0.00 | 1.22 | 0.00 | 96 | 1012.7 |
| 20260509051551 | 70 | 115 | 0.0 | 2.0 | 0.00 | 1.22 | 0.00 | 96 | 1013.0 |
| 20260509050052 | 70 | 85 | 0.0 | 0.0 | 0.00 | 1.22 | 0.00 | 96 | 1012.8 |
| 20260509044547 | 70 | 0 | 0.0 | 0.0 | 0.00 | 1.22 | 1.22 | 96 | 1013.2 |
| 20260509043045 | 70 | 0 | 0.0 | 0.0 | 0.00 | 1.22 | 1.22 | 95 | 1013.2 |
| 20260509041547 | 70 | 0 | 0.0 | 1.0 | 0.00 | 1.22 | 1.22 | 95 | 1013.6 |
| 20260509040045 | 70 | 0 | 0.0 | 1.0 | 0.00 | 1.22 | 1.22 | 96 | 1013.1 |
| 20260509034554 | 70 | 0 | 0.0 | 2.0 | 0.00 | 1.22 | 1.22 | 95 | 1012.9 |
| 20260509033046 | 70 | 0 | 0.0 | 0.0 | 0.00 | 1.22 | 1.22 | 96 | 1012.7 |
| 20260509031549 | 70 | 0 | 0.0 | 0.0 | 0.00 | 1.22 | 1.22 | 95 | 1013.0 |
| 20260509030049 | 70 | 0 | 0.0 | 2.0 | 0.00 | 1.22 | 1.22 | 96 | 1013.1 |
| 20260509024542 | 70 | 320 | 0.0 | 4.0 | 0.00 | 1.22 | 1.22 | 96 | 1013.4 |
| 20260509023047 | 70 | 53 | 0.0 | 4.0 | 0.00 | 1.22 | 1.22 | 96 | 1012.9 |
| 20260509021547 | 70 | 0 | 0.0 | 3.0 | 0.00 | 1.22 | 1.22 | 96 | 1012.1 |
| 20260509020044 | 70 | 138 | 0.0 | 4.0 | 0.00 | 1.22 | 1.22 | 96 | 1011.6 |
| 20260509014549 | 70 | 0 | 0.0 | 2.0 | 0.00 | 1.22 | 1.22 | 95 | 1012.1 |
| 20260509013045 | 70 | 0 | 0.0 | 1.0 | 0.00 | 1.22 | 1.22 | 95 | 1012.2 |
| 20260509011553 | 70 | 53 | 0.0 | 2.0 | 0.00 | 1.22 | 1.22 | 95 | 1012.1 |
| 20260509010051 | 71 | 0 | 0.0 | 3.0 | 0.00 | 1.22 | 1.22 | 96 | 1012.3 |
| 20260509004549 | 71 | 0 | 0.0 | 0.0 | 0.00 | 1.22 | 1.22 | 96 | 1011.7 |
| 20260509003052 | 71 | 0 | 0.0 | 2.0 | 0.00 | 1.22 | 1.22 | 95 | 1012.4 |
| 20260509001549 | 71 | 0 | 0.0 | 3.0 | 0.00 | 1.22 | 1.22 | 96 | 1012.6 |
| 20260509000044 | 71 | 141 | 0.0 | 4.0 | 0.00 | 1.22 | 1.22 | 96 | 1012.2 |
| 20260508234554 | 70 | 59 | 0.0 | 1.0 | 0.00 | 1.22 | 1.22 | 96 | 1011.7 |
| 20260508233054 | 70 | 0 | 0.0 | 2.0 | 0.00 | 1.22 | 1.22 | 95 | 1011.8 |
| 20260508231622 | 71 | 0 | 0.0 | 3.0 | 0.00 | 1.22 | 1.22 | 95 | 1012.2 |
| 20260508230059 | 71 | 0 | 0.0 | 2.0 | 0.00 | 1.22 | 1.22 | 95 | 1012.2 |
| 20260508224550 | 71 | 0 | 0.0 | 2.0 | 0.00 | 1.22 | 1.22 | 96 | 1012.3 |
| 20260508223049 | 70 | 0 | 0.0 | 2.0 | 0.00 | 1.22 | 1.22 | 96 | 1011.9 |
| 20260508221550 | 70 | 0 | 1.0 | 4.0 | 0.02 | 1.22 | 1.22 | 96 | 1011.9 |
| 20260508220048 | 70 | 121 | 0.0 | 5.0 | 0.03 | 1.22 | 1.22 | 96 | 1012.1 |
| 20260508214618 | 69 | 64 | 0.0 | 3.0 | 0.04 | 1.22 | 1.22 | 95 | 1012.8 |
| 20260508213053 | 69 | 0 | 0.0 | 3.0 | 0.12 | 1.22 | 1.22 | 95 | 1013.0 |
| 20260508211544 | 69 | 0 | 0.0 | 4.0 | 0.21 | 1.20 | 1.20 | 95 | 1013.3 |
| 20260508210054 | 69 | 0 | 0.0 | 1.0 | 0.20 | 1.19 | 1.19 | 96 | 1013.0 |
| 20260508204549 | 68 | 140 | 0.0 | 5.0 | 0.19 | 1.17 | 1.17 | 95 | 1013.2 |
| 20260508203106 | 68 | 0 | 0.0 | 5.0 | 0.11 | 1.10 | 1.10 | 95 | 1013.5 |
| 20260508201549 | 68 | 0 | 1.0 | 7.0 | 0.02 | 0.99 | 0.99 | 95 | 1013.7 |
| 20260508200046 | 68 | 156 | 1.0 | 5.0 | 0.14 | 0.99 | 0.99 | 95 | 1013.6 |
| 20260508194554 | 68 | 0 | 0.0 | 6.0 | 0.18 | 0.99 | 0.99 | 94 | 1013.2 |
| 20260508193110 | 68 | 0 | 0.0 | 7.0 | 0.29 | 0.99 | 0.99 | 94 | 1013.3 |
| 20260508191549 | 68 | 58 | 0.0 | 5.0 | 0.36 | 0.96 | 0.96 | 94 | 1013.4 |
| 20260508190051 | 68 | 0 | 0.0 | 6.0 | 0.27 | 0.85 | 0.85 | 94 | 1013.7 |
| 20260508184546 | 68 | 61 | 2.0 | 8.0 | 0.33 | 0.81 | 0.81 | 94 | 1013.6 |
| 20260508183044 | 68 | 5 | 1.0 | 10.0 | 0.21 | 0.69 | 0.69 | 94 | 1014.3 |
| 20260508181553 | 68 | 68 | 5.0 | 13.0 | 0.12 | 0.60 | 0.60 | 94 | 1014.2 |
| 20260508180058 | 67 | 38 | 2.0 | 13.0 | 0.10 | 0.58 | 0.58 | 94 | 1014.7 |
| 20260508174547 | 67 | 322 | 3.0 | 10.0 | 0.00 | 0.48 | 0.48 | 94 | 1015.7 |
| 20260508173044 | 67 | 54 | 2.0 | 9.0 | 0.01 | 0.48 | 0.48 | 93 | 1014.8 |
| 20260508171547 | 67 | 78 | 1.0 | 9.0 | 0.01 | 0.48 | 0.48 | 93 | 1015.2 |
| 20260508170048 | 68 | 0 | 1.0 | 8.0 | 0.16 | 0.48 | 0.48 | 93 | 1014.9 |
| 20260508164546 | 68 | 0 | 1.0 | 4.0 | 0.16 | 0.48 | 0.48 | 93 | 1014.5 |
| 20260508163053 | 68 | 0 | 0.0 | 4.0 | 0.15 | 0.47 | 0.47 | 93 | 1014.2 |
| 20260508161553 | 69 | 0 | 0.0 | 4.0 | 0.15 | 0.47 | 0.47 | 92 | 1014.1 |
| 20260508160051 | 69 | 0 | 1.0 | 5.0 | 0.08 | 0.32 | 0.32 | 92 | 1013.8 |
| 20260508154550 | 69 | 0 | 1.0 | 4.0 | 0.25 | 0.32 | 0.32 | 92 | 1014.3 |
| 20260508153047 | 69 | 0 | 0.0 | 3.0 | 0.31 | 0.32 | 0.32 | 92 | 1014.6 |
| 20260508151545 | 69 | 0 | 0.0 | 3.0 | 0.32 | 0.32 | 0.32 | 92 | 1014.7 |
| 20260508150050 | 69 | 50 | 1.0 | 4.0 | 0.23 | 0.23 | 0.23 | 92 | 1015.2 |